Theta_e
326 327 326 323 318 321 322 324 323 323 322 321 321 317 310 308 305 304 304 304 304 304 305 304 303 302 301 300 300 300 300 300 300 300 300 300 300 300 300 300 300 300 300
324 325 326 325 323 319 322 324 324 323 322 321 322 317 309 306 305 304 303 303 303 303 303 302 302 300 300 300 300 299 299 299 300 300 300 300 300 300 300 300 300 300 300
322 324 325 325 324 321 321 324 324 323 322 321 322 316 308 306 305 304 303 303 302 302 302 301 301 300 300 299 299 299 299 299 299 299 299 299 299 299 299 299 299 299 300
319 322 324 326 327 324 324 326 326 323 322 322 322 315 308 306 305 304 303 302 302 302 301 301 300 300 299 299 298 298 299 298 298 298 298 298 298 298 298 298 299 300 301
323 318 322 324 327 326 325 327 327 324 323 322 322 314 308 307 306 304 303 302 302 301 301 300 300 299 299 298 298 298 298 298 298 298 298 298 297 297 298 301 303 304 305
328 322 319 321 325 325 324 327 327 325 323 322 321 312 309 308 306 304 303 302 302 301 301 300 299 299 299 299 299 298 298 297 297 297 296 296 297 297 299 304 304 305 305
332 330 329 324 325 324 323 326 327 326 324 322 320 310 309 308 307 304 303 303 302 301 301 301 300 299 299 299 298 298 297 297 296 296 295 297 298 300 302 304 304 304 305
333 332 330 329 328 325 325 326 327 327 324 321 319 310 308 308 308 305 304 303 302 302 302 301 300 299 299 298 298 297 297 296 296 295 295 297 301 302 303 303 304 304 305
331 331 331 330 329 326 326 327 327 328 326 323 322 311 309 310 308 307 305 304 303 302 302 301 300 299 299 298 297 297 296 296 295 294 295 300 301 302 302 303 304 304 304
329 330 332 331 328 329 327 327 328 327 326 324 322 315 310 310 309 307 306 305 304 302 302 301 300 300 299 297 297 296 296 294 293 293 294 297 300 301 301 301 302 303 303
329 328 328 330 328 328 328 328 328 327 327 326 325 322 311 311 310 309 308 308 304 303 302 301 300 299 298 297 296 295 294 293 292 292 292 293 297 298 299 300 300 301 301
330 329 329 327 327 327 329 328 328 327 326 325 323 319 312 311 311 310 309 308 307 304 302 300 299 297 296 296 295 293 293 291 291 291 291 291 294 297 297 298 298 298 298
326 329 329 329 327 326 326 328 327 327 326 324 321 316 310 310 309 310 309 307 306 303 302 300 298 297 296 295 294 292 292 291 291 291 290 289 291 292 293 294 295 295 296
323 325 328 329 329 327 326 327 327 326 326 322 318 310 310 308 309 306 305 304 303 301 301 299 298 296 294 293 291 290 290 290 289 289 289 288 288 288 289 291 292 293 294
320 322 325 326 329 328 327 326 327 326 324 319 314 309 308 308 304 306 306 302 303 297 297 298 296 295 293 291 290 290 289 288 288 287 287 287 287 287 289 290 290 291 292
317 320 324 326 326 328 328 327 326 323 320 313 309 308 304 304 302 303 300 299 296 295 293 296 296 293 291 290 290 289 288 287 287 286 286 286 285 286 288 289 290 291 291
316 320 324 326 326 326 326 324 322 320 314 308 305 303 301 302 304 302 297 299 295 293 292 294 294 291 289 289 288 288 287 286 286 286 286 285 285 287 288 289 290 290 290
319 321 324 324 324 323 321 321 317 312 306 304 303 303 304 306 304 301 296 298 300 297 294 290 289 289 288 288 287 286 286 286 285 285 285 285 285 286 287 287 288 289 289
320 321 320 321 321 321 318 314 309 305 302 303 303 304 304 302 301 302 300 298 298 291 289 288 288 287 287 286 286 286 285 285 285 284 284 285 285 286 286 286 287 288 288
318 319 319 318 317 315 309 307 302 302 302 303 303 301 302 301 300 298 299 296 289 288 288 288 287 287 286 286 286 285 285 284 284 284 285 285 285 285 286 286 286 286 286
314 314 314 312 311 309 304 300 302 303 303 301 300 301 299 298 300 295 290 288 287 288 287 287 287 286 286 285 285 285 284 283 284 284 286 286 285 285 286 286 286 287 287
309 306 305 305 303 301 302 302 302 301 300 300 299 299 299 291 289 287 286 286 285 285 286 286 285 286 286 285 285 284 283 284 284 284 284 285 285 285 286 286 286 287 286
303 301 300 300 300 301 302 301 300 300 299 299 299 293 288 286 287 286 285 285 284 284 285 286 285 285 285 284 283 284 284 284 284 283 283 284 284 285 286 286 286 286 286
300 300 300 300 300 299 299 299 299 299 298 292 286 287 287 286 286 285 284 283 284 284 285 285 284 284 283 284 284 283 283 283 283 284 284 283 285 285 285 285 286 286 286
299 299 298 298 298 299 298 300 295 288 287 287 287 286 286 285 283 282 283 284 285 285 284 283 282 282 282 282 283 283 283 283 284 284 285 283 285 284 284 285 285 285 286
299 299 300 299 297 294 291 290 287 287 287 286 285 284 283 282 282 284 285 285 284 283 282 282 282 282 283 284 284 284 284 283 283 282 283 282 283 282 281 283 284 285 285
Wind_Speed
19 18 17 16 15 14 12 11 10 9 8 7 7 8 8 8 6 6 6 6 6 6 5 3 3 3 3 4 5 6 6 6 7 7 9 10 10 10 11 11 11 12 12
22 20 19 18 17 15 14 13 12 11 9 9 9 9 9 8 7 6 6 6 5 5 5 4 3 3 4 6 7 7 8 9 9 10 11 12 12 12 12 12 13 13 13
25 23 21 20 18 16 16 15 14 13 12 11 10 10 10 8 7 6 6 5 5 5 5 4 4 4 5 7 8 8 10 10 12 12 13 13 13 13 14 14 14 14 14
27 27 25 23 20 19 18 17 15 14 14 12 12 11 11 10 8 7 7 6 6 6 6 6 5 5 6 6 6 8 11 13 15 14 14 15 15 15 15 14 13 13 12
28 30 28 25 23 23 22 20 17 15 15 14 13 12 12 11 10 9 8 8 8 7 6 6 7 7 6 7 9 10 12 14 16 18 18 17 16 15 13 12 12 13 13
28 30 29 27 27 26 25 24 21 18 17 16 15 14 13 13 12 11 11 10 9 9 8 9 8 8 8 10 11 13 15 15 17 18 17 17 16 15 12 11 12 14 14
28 30 29 29 31 30 28 25 25 22 20 19 17 16 15 15 14 13 13 12 12 12 11 11 11 11 12 13 14 16 18 17 17 18 16 15 14 14 13 13 14 15 16
31 32 31 31 32 32 30 30 28 25 23 22 19 17 11 16 18 17 16 15 15 15 14 14 14 14 15 17 18 20 20 20 19 18 16 14 14 13 14 15 17 18 19
35 33 34 35 32 33 33 32 31 29 26 24 22 18 8 10 13 18 20 19 17 17 16 16 16 17 19 21 23 22 23 22 20 19 17 15 15 16 18 19 20 21 23
37 35 35 36 35 36 36 34 34 33 29 28 25 26 26 17 9 8 18 20 19 19 18 18 19 20 22 24 24 24 24 23 21 21 20 17 18 19 21 23 24 24 26
42 39 37 37 37 38 38 36 37 36 34 29 31 29 28 27 24 20 12 16 19 20 20 20 21 22 24 24 25 24 24 24 24 23 24 26 24 24 24 25 27 27 26
47 43 40 38 38 37 39 39 39 38 36 32 34 32 30 29 28 25 22 20 17 18 19 21 23 24 24 24 23 24 25 25 25 31 31 30 26 25 26 27 27 27 28
43 42 44 42 40 39 39 40 42 41 38 35 35 33 31 27 25 23 21 20 18 18 19 19 21 23 23 22 25 24 25 30 32 32 32 32 30 29 28 27 27 27 27
36 39 43 43 41 40 40 41 41 43 38 37 37 33 29 28 25 21 17 18 16 18 19 20 19 20 22 20 22 28 32 32 33 33 32 31 32 32 31 27 26 26 26
38 38 40 42 45 43 42 44 43 42 39 38 36 33 32 25 23 21 18 18 17 16 17 18 16 19 20 26 30 33 34 34 34 33 32 31 31 30 27 26 27 27 28
35 37 40 41 43 44 43 43 40 37 38 37 34 32 25 26 20 16 14 14 15 17 19 18 22 25 27 29 31 33 33 34 33 33 32 31 31 29 27 27 27 27 28
32 34 36 36 36 39 40 37 34 35 36 35 31 27 24 20 19 14 14 14 16 20 23 25 26 26 28 29 31 31 32 33 33 32 32 32 32 28 26 27 27 28 28
28 30 31 29 28 30 31 30 32 33 33 31 28 25 23 20 20 18 14 15 20 22 24 30 28 29 30 29 32 34 32 33 34 33 31 29 27 26 26 26 26 27 28
20 22 23 23 23 24 27 29 29 29 27 25 24 23 20 16 13 14 18 18 20 18 23 27 30 30 31 32 33 35 35 36 36 34 29 26 26 24 24 24 24 26 28
17 18 19 21 22 23 25 26 27 26 23 20 19 15 11 11 13 14 18 17 17 22 23 25 28 30 31 32 34 36 40 38 39 32 28 25 25 26 27 26 26 27 29
15 17 19 20 20 22 23 25 21 19 16 13 12 10 10 13 15 14 15 16 19 21 23 25 28 30 33 33 34 36 39 39 35 34 31 30 34 34 29 27 28 28 29
14 15 16 17 19 21 19 14 13 13 12 11 9 10 10 11 11 13 16 17 19 21 24 26 26 28 32 33 35 35 33 35 38 34 36 40 37 37 33 32 29 28 29
11 13 15 15 16 15 13 13 13 10 8 8 8 7 8 12 13 16 17 18 19 19 18 20 26 28 31 32 29 30 32 33 36 39 39 46 38 39 35 34 32 31 30
15 17 16 16 14 13 9 9 5 3 3 3 7 8 10 13 14 16 18 18 18 19 20 23 26 28 28 25 26 30 33 37 38 37 33 43 40 41 39 39 34 28 24
18 18 17 14 10 9 6 2 2 0 2 5 9 10 13 14 16 16 16 17 19 21 23 24 23 22 23 23 24 27 29 31 37 37 34 30 38 43 45 42 32 32 35
17 14 12 9 8 6 4 3 0 4 7 8 11 13 15 16 15 11 13 18 24 25 22 22 21 19 18 19 21 22 26 29 31 34 27 30 38 38 31 38 39 43 38
Wind_Direction
224 218 216 218 218 217 221 228 233 239 251 260 275 283 289 289 283 270 265 266 270 269 273 286 302 320 320 323 321 318 317 318 318 316 310 308 303 299 293 289 285 281 279
229 226 221 222 223 221 223 231 231 243 251 262 275 283 286 283 279 267 258 258 262 261 261 272 283 293 306 311 315 315 315 319 320 318 310 305 303 301 297 293 288 284 280
232 230 227 224 226 226 225 224 232 242 252 260 271 278 280 273 267 262 255 250 246 246 252 252 263 280 288 296 306 314 319 318 314 312 309 307 304 303 299 297 292 289 286
237 236 231 227 228 230 227 225 234 243 249 262 267 270 271 269 266 260 254 243 239 241 237 245 257 274 281 283 296 309 314 318 316 317 312 306 303 301 299 298 299 298 296
243 240 236 231 229 232 229 229 235 242 247 259 261 264 265 263 259 258 243 235 236 234 240 247 264 275 275 284 297 305 312 313 312 314 312 307 303 300 298 304 307 308 312
242 241 238 231 230 232 228 229 233 240 244 252 255 256 257 255 252 247 235 230 229 232 245 255 269 276 281 293 296 304 309 309 308 308 306 304 302 300 295 302 306 309 311
238 238 237 230 229 231 229 231 232 235 239 245 248 247 248 251 251 241 234 232 234 238 250 260 271 275 284 296 298 302 305 304 304 304 301 298 296 297 296 293 299 303 304
243 238 235 233 229 231 229 231 232 234 236 238 241 242 243 247 245 240 237 236 240 243 251 259 271 278 285 295 299 302 301 300 299 298 294 294 294 293 291 289 292 296 294
251 245 241 240 233 233 234 235 235 235 236 237 240 232 219 230 231 236 236 238 245 247 254 260 269 279 287 295 301 302 301 300 298 293 292 291 290 289 292 291 290 289 290
249 249 245 246 245 238 236 236 237 236 232 239 240 238 239 243 225 232 236 239 245 248 254 259 269 277 286 296 299 299 298 297 294 291 288 289 291 289 288 288 288 286 285
249 247 247 246 247 245 241 240 237 238 236 234 242 242 238 241 243 240 241 244 243 244 251 259 269 276 284 291 293 292 291 293 292 290 291 292 291 290 288 287 287 287 284
249 247 246 245 247 250 245 244 241 240 239 238 240 242 242 241 237 234 236 243 243 246 251 259 266 273 280 286 288 289 292 291 291 296 295 294 293 289 287 284 286 283 283
252 251 250 245 245 248 249 248 241 239 238 237 240 241 238 240 245 239 237 239 244 249 254 263 267 274 280 283 287 287 289 292 294 295 295 294 292 289 287 285 284 284 283
253 253 252 252 250 248 250 249 243 240 239 237 237 236 242 237 235 245 244 248 246 251 259 269 278 278 282 285 288 292 296 299 301 301 299 297 293 291 288 287 286 285 281
249 248 249 250 251 250 249 246 243 239 235 236 235 238 232 238 237 239 246 249 260 264 271 273 283 289 292 294 298 299 301 304 306 307 306 304 299 292 289 286 286 286 283
251 249 250 248 245 245 243 239 239 233 233 232 233 232 233 217 233 232 248 271 274 273 272 287 287 291 292 293 294 296 301 304 306 306 305 304 299 294 290 287 287 285 280
252 252 250 250 247 240 238 233 230 228 227 227 224 219 220 224 230 246 248 252 281 287 290 289 292 290 291 295 296 298 301 302 303 304 306 303 296 293 290 286 283 281 281
256 256 251 245 240 235 230 226 223 220 222 220 222 219 229 234 237 238 257 261 265 275 292 292 294 297 297 300 302 303 306 308 308 309 304 300 298 295 291 287 284 283 280
259 253 243 234 225 222 220 215 215 216 212 215 218 223 226 235 252 273 276 281 283 295 282 290 296 300 303 307 308 308 309 309 310 315 313 305 302 301 295 291 289 284 280
240 227 225 217 210 208 207 209 204 206 213 218 221 228 240 258 269 275 278 299 291 282 286 289 295 300 303 307 308 310 313 316 314 315 314 311 309 307 303 303 298 295 291
210 207 205 197 198 201 201 196 202 214 214 217 224 240 259 267 275 308 293 281 282 288 290 292 295 298 300 307 310 313 310 315 317 318 319 317 315 313 314 310 306 300 294
189 181 181 186 185 182 193 197 199 199 205 215 235 263 282 302 292 288 284 279 281 283 289 289 294 299 301 307 309 310 313 317 315 317 318 312 314 311 314 312 308 303 299
149 152 153 158 161 162 178 184 192 194 213 248 288 313 282 280 290 289 288 290 286 282 283 289 293 296 299 302 311 312 311 307 304 307 310 306 309 309 315 310 309 309 307
142 147 152 157 158 148 157 168 194 235 299 312 260 286 291 296 297 296 297 296 297 295 298 296 298 300 304 310 305 302 298 297 299 303 311 301 313 312 313 310 311 312 311
136 131 131 130 138 138 155 152 34 89 275 289 295 299 299 304 309 307 304 306 299 299 305 301 296 297 300 303 303 301 305 305 306 311 313 304 316 315 312 312 314 317 317
127 128 131 135 122 96 100 72 172 286 302 305 311 315 314 312 308 318 306 299 304 309 307 305 312 311 311 311 311 308 308 307 310 315 313 309 311 313 312 308 309 311 311